Flag for Germany Weather past 2 weeks in Salzgitter, Lower Saxony, Germany

Now
66 °F

Light rain. Clear.


Feels Like: 66 °F
Forecast: 63 / 77 °F
Wind: 5 mph from North

Location: Braunschweig

Current Time: Jul 30, 2014 at 1:14:18 AM

Latest Report: Jul 29, 2014 at 9:50 PM


Visibility: N/A

Pressure: 29.77 "Hg

Humidity: 100%

Dew point: 66 °F

Location of SalzgitterLocation

Historic Weather in Salzgitter — Graph

°F

Salzgitter temperature yesterday

Maximum temperature yesterday: 81 °F (at 4:20 PM)
Minimum temperature yesterday: 66 °F (at 6:50 AM)
Average temperature yesterday: 72 °F

Past Weeks' High & Low Weather Summary

 TemperatureHumidityPressure
High93 °F (Jul 20, 1:50 PM)100% (Jul 16, 6:50 AM)30.21 "Hg (Jul 16, 6:50 AM)
Low55 °F (Jul 17, 5:50 AM)24% (Jul 19, 4:50 PM)29.74 "Hg (Jul 29, 4:50 PM)
Average74 °F64%30.00 "Hg
* Reported Jul 14 9:20 PM — Jul 29 9:50 PM, Salzgitter, Weather by CustomWeather, © 2014

Note: Actual official high and low records may vary slightly from our data, if they occured in-between our weather recording intervals... More about our weather records

Advertising

Salzgitter weather history for previous 24 hours

 ConditionsComfort  
Time TempWeatherWind HumidityBarometerVisibility
9:50 PM
Jul 29
66 °FLight rain. Clear.5 mph100%29.77 "HgN/A
9:20 PM66 °FLight rain. Clear.6 mph100%29.77 "HgN/A
8:50 PM66 °FRain. Mostly cloudy.9 mph100%29.77 "Hg2 mi
8:20 PM73 °FSleet. Cloudy.14 mph74%29.77 "Hg3 mi
7:50 PM77 °FPassing clouds.5 mph69%29.74 "HgN/A
7:20 PM79 °FSunny.No wind61%29.74 "Hg10 mi
6:50 PM79 °FSunny.No wind65%29.74 "Hg10 mi
6:20 PM77 °FSunny.2 mph69%29.74 "Hg10 mi
5:20 PM79 °FSunny.3 mph61%29.77 "Hg10 mi
4:50 PM79 °FBroken clouds.9 mph61%29.74 "HgN/A
4:20 PM81 °FPassing clouds.8 mph62%29.77 "HgN/A
3:50 PM79 °FPassing clouds.6 mph70%29.77 "HgN/A
3:20 PM75 °FPassing clouds.8 mph78%29.80 "HgN/A
2:50 PM75 °FClear.6 mph74%29.80 "Hg5 mi
2:20 PM72 °FClear.5 mph88%29.80 "Hg5 mi
1:50 PM70 °FClear.6 mph94%29.83 "Hg6 mi
1:20 PM70 °FPartly sunny.7 mph94%29.83 "Hg5 mi
12:50 PM70 °FPartly sunny.6 mph94%29.83 "Hg4 mi
12:20 PM70 °FLight rain. Broken clouds.3 mph94%29.83 "Hg5 mi
11:50 AM68 °FLight rain. Clear.3 mph100%29.83 "Hg4 mi
11:20 AM68 °FLight rain. Clear.No wind100%29.86 "Hg5 mi
10:50 AM70 °FLight rain. More clouds than sun.No wind88%29.83 "HgN/A
10:20 AM70 °FSunny.2 mph88%29.83 "Hg10 mi
9:50 AM70 °FClear.3 mph88%29.83 "Hg5 mi
9:20 AM70 °FClear.3 mph88%29.83 "Hg5 mi
8:50 AM68 °FClear.5 mph94%29.83 "Hg4 mi
8:20 AM68 °FClear.5 mph94%29.83 "Hg4 mi
7:50 AM68 °FClear.5 mph94%29.83 "Hg4 mi
7:20 AM66 °FClear.5 mph100%29.83 "Hg4 mi
6:50 AM66 °FPassing clouds.5 mph100%29.83 "HgN/A
Weather by CustomWeather, © 2014

See weather overviewHow to use our weather pages